Location: Chandolas
(44.4033°N, 4.2533°E)
Time: 06:50:55
(UTC+00:00)

Cosmos 923 Rocket - Pass Details

Date: 15 November 2019
Orbit: 759 x 785 km, 74.0° (Epoch: 06 December)

Event Time Altitude Azimuth Distance (km) Brightness Sun altitude
Exits shadow 04:34:16 51° 254° (WSW) 960 4.1 -22.1°
Drops below altitude 10° 04:39:15 10° 181° (S) 2,298 6.5 -21.3°
Sets 04:41:41 0° 176° (S) 3,223 7.4 -20.8°
